Location: San Gennaro Vesuviano
(40.8833°N, 14.5333°E)
Time: 23:00:28
(UTC+00:00)

BREEZE M DEB (TANK) - Pass Details

Date: 22 April 2021
Orbit: 342 x 13618 km, 49.6° (Epoch: 10 May)

Event Time Altitude Azimuth Distance (km) Brightness Sun altitude
Rises 19:49:30 0° 233° (SW) 2,367 6.2 -20.8°
Reaches altitude 10° 19:50:53 10° 232° (SW) 1,713 5.5 -21.0°
Maximum altitude 19:54:12 82° 146° (SE) 822 3.5 -21.5°
Drops below altitude 10° 20:04:21 10° 59° (ENE) 4,970 7.5 -22.9°
Sets 20:11:35 0° 60° (ENE) 7,807 8.5 -23.9°
